Weather History for New Delhi, India

Change the Weather History Date:

Wednesday, February 20, 2013

  Actual Average Record
Temperature  
Mean Temperature 60 °F -  
Max Temperature 71 °F 80 °F 75 °F (2014)
Min Temperature 50 °F 56 °F 51 °F (2014)
Degree Days  
Heating Degree Days 4    
Growing Degree Days 10 (Base 50)    
Moisture  
Dew Point 58 °F    
Average Humidity 89    
Maximum Humidity 100    
Minimum Humidity 64    
Precipitation  
Precipitation 0.00 in - - ()
Sea Level Pressure  
Sea Level Pressure 30.02 in    
Wind  
Wind Speed 3 mph ()    
Max Wind Speed 12 mph    
Max Gust Speed -    
Visibility 0.8 miles    
Events Fog    
Averages and records for this station are not official NWS values.
T = Trace of Precipitation, MM = Missing Value Source: Averaged Metar Reports

Daily Weather History Graph

Daily Weather History Graph

Search for Another Location

Airport:

Trip Planner

Search our weather history database for the weather conditions in past years. The results will help you decide how hot, cold, wet, or windy it might be!

Date:

Astronomy

Feb. 20, 2013 Rise Set
Actual Time 6:55 AM IST 6:15 PM IST
Civil Twilight 6:31 AM IST 6:39 PM IST
Nautical Twilight 6:04 AM IST 7:06 PM IST
Astronomical Twilight 5:36 AM IST 7:34 PM IST
Moon 1:27 PM IST (2/20) 2:39 AM IST (2/20)
Length of Visible Light 12h 07m
Length of Day
11h 19m
Waxing Gibbous, 72% of the Moon is Illuminated
Feb 20
Waxing Gibbous
Feb 26
Full
Mar 5
Last Quarter
Mar 12
New
Mar 19
First Quarter

Hourly Weather History & Observations

Time (IST) Temp. Dew Point Humidity Pressure Visibility Wind Dir Wind Speed Gust Speed Precip Events Conditions
12:00 AM 57.2 °F 57.2 °F 100% 30.01 in 0.7 mi Calm Calm - N/A   Partly Cloudy
12:30 AM 57.2 °F 57.2 °F 100% 30.01 in 0.7 mi Calm Calm - N/A   Partly Cloudy
1:00 AM 57.2 °F 57.2 °F 100% 30.01 in 0.6 mi Calm Calm - N/A   Mist
2:00 AM 57.2 °F 57.2 °F 100% 30.01 in 0.5 mi Calm Calm - N/A Fog Shallow Fog
3:00 AM 55.4 °F 55.4 °F 100% 30.01 in 0.3 mi Calm Calm - N/A Fog Fog
3:30 AM 55.4 °F 55.4 °F 100% 29.98 in 0.4 mi Calm Calm - N/A Fog Shallow Fog
4:00 AM 55.4 °F 55.4 °F 100% 29.98 in 0.2 mi Calm Calm - N/A Fog Fog
4:30 AM 55.4 °F 55.4 °F 100% 29.98 in 0.2 mi Calm Calm - N/A Fog Fog
5:30 AM 53.6 °F 53.6 °F 100% 30.01 in 0.1 mi Calm Calm - N/A Fog Fog
6:00 AM 53.6 °F 53.6 °F 100% 30.01 in 0.1 mi Calm Calm - N/A Fog Fog
6:30 AM 51.8 °F 51.8 °F 100% 30.01 in 0.0 mi Calm Calm - N/A Fog Fog
7:00 AM 51.8 °F 51.8 °F 100% 30.04 in - Calm Calm - N/A Fog Fog
7:30 AM 50.0 °F 50.0 °F 100% 30.04 in - Calm Calm - N/A Fog Fog
8:00 AM 50.0 °F 50.0 °F 100% 30.04 in 0.0 mi SSW 5.8 mph - N/A Fog Fog
8:30 AM 51.8 °F 51.8 °F 100% 30.06 in 0.0 mi SW 4.6 mph - N/A Fog Fog
9:00 AM 53.6 °F 53.6 °F 100% 30.06 in 0.0 mi WSW 4.6 mph - N/A Fog Fog
9:30 AM 53.6 °F 53.6 °F 100% 30.06 in 0.1 mi West 4.6 mph - N/A Fog Fog
10:00 AM 55.4 °F 55.4 °F 100% 30.09 in 0.2 mi WSW 4.6 mph - N/A Fog Fog
10:30 AM 57.2 °F 57.2 °F 100% 30.09 in 0.4 mi WSW 4.6 mph - N/A Fog Fog
12:00 PM 66.2 °F 66.2 °F 100% 30.06 in 1.1 mi WNW 6.9 mph - N/A   Mist
12:30 PM 68.0 °F 66.2 °F 94% 30.06 in 1.3 mi WNW 9.2 mph - N/A   Mist
1:00 PM 69.8 °F 62.6 °F 78% 30.04 in 1.5 mi WNW 10.4 mph - N/A   Mist
1:30 PM 69.8 °F 62.6 °F 78% 30.04 in 1.5 mi WNW 9.2 mph - N/A   Mist
2:00 PM 71.6 °F 60.8 °F 69% 30.04 in 1.7 mi West 9.2 mph - N/A   Smoke
2:30 PM 71.6 °F 60.8 °F 69% 30.01 in 1.7 mi West 8.1 mph - N/A   Smoke
3:00 PM 71.6 °F 60.8 °F 69% 30.01 in 1.7 mi West 9.2 mph - N/A   Smoke
3:30 PM 71.6 °F 60.8 °F 69% 29.98 in 1.7 mi NW 10.4 mph - N/A   Smoke
4:00 PM 71.6 °F 60.8 °F 69% 29.98 in 1.7 mi NW 10.4 mph - N/A   Smoke
4:30 PM 71.6 °F 60.8 °F 69% 29.98 in 1.7 mi NW 9.2 mph - N/A   Smoke
5:00 PM 69.8 °F 59.0 °F 68% 29.98 in 1.6 mi NW 11.5 mph - N/A   Smoke
5:30 PM 69.8 °F 57.2 °F 64% 29.98 in 1.6 mi NW 10.4 mph - N/A   Haze
6:00 PM 68.0 °F 57.2 °F 68% 29.98 in 1.4 mi NW 9.2 mph - N/A   Haze
6:30 PM 68.0 °F 57.2 °F 68% 29.98 in 1.3 mi NW 9.2 mph - N/A   Haze
7:00 PM 66.2 °F 57.2 °F 73% 30.01 in 1.1 mi WNW 6.9 mph - N/A   Smoke
7:30 PM 64.4 °F 57.2 °F 77% 30.01 in 1.0 mi WNW 4.6 mph - N/A   Mist
8:00 PM 64.4 °F 60.8 °F 88% 30.01 in 0.9 mi West 3.5 mph - N/A   Mist
8:30 PM 64.4 °F 60.8 °F 88% 30.01 in 0.9 mi WNW 3.5 mph - N/A   Mist
9:00 PM 62.6 °F 60.8 °F 94% 30.04 in 0.9 mi WNW 3.5 mph - N/A   Mist
9:30 PM 62.6 °F 60.8 °F 94% 30.04 in 0.7 mi NW 4.6 mph - N/A   Mist
10:00 PM 62.6 °F 60.8 °F 94% 30.04 in 0.7 mi Calm Calm - N/A   Mist
10:30 PM 60.8 °F 59.0 °F 94% 30.04 in 0.6 mi Calm Calm - N/A   Mist
11:00 PM 60.8 °F 59.0 °F 94% 30.04 in 0.6 mi Calm Calm - N/A   Mist
11:30 PM 60.8 °F 59.0 °F 94% 30.04 in 0.6 mi Calm Calm - N/A   Mist